Weather WX

World > North America > United States > Nevada

Stillwater, Nevada Regional Weather

Lat: 39.52N, Lon: 118.55W
Wx Zone: NVZ004
Feedback

Stillwater, NV Regional Weather

Expires:201907200800;;338554
ASUS45 KREV 200710
RWRNV 
NEVADA REGIONAL WEATHER ROUNDUP
NATIONAL WEATHER SERVICE RENO NV
1200 AM PDT SAT JUL 20 2019

NOTE: "FAIR" INDICATES FEW OR NO CLOUDS BELOW 12,000 FEET WITH NO
SIGNIFICANT WEATHER AND/OR OBSTRUCTIONS TO VISIBILITY.


NVZ001-003-004-200800-
WESTERN NEVADA
  
CITY           SKY/WX    TMP DP  RH WIND       PRES   REMARKS
RENO           CLEAR     74  45  35 N8        30.00S                  
CARSON CITY    FAIR      72  48  43 CALM      30.01R                  
MINDEN         FAIR      63  50  63 E9        30.03S                  
SLIDE MTN        N/A     54  41  62 W9          N/A                   
FALLON         PTCLDY    76  46  34 W12       29.92R                  
LOVELOCK       CLEAR     78  41  26 N5        29.90S                  
HAWTHORNE      CLEAR     79  41  25 NW7       29.96R                  
$$


SKY/WX - Weather  TMP - Temperature  DP - Dew Point  RH - Relative Humidity
WIND - Wind Direction/Speed PRES - Barometric Pressure VSB - Visibility
WCI - Wind Chill Index E13G22 Wind - East Wind 13 mph/Gusts of 22 mph